Regional Weather Roundup
Issued by NWS

Home | Current Version | Previous Version | Graphics & Text | Print | Product List | Glossary On
Versions: 1 2 3 4 5 6 7 8 9 10 11 12 13 14 15 16 17 18 19 20 21 22 23 24 25 26 27 28 29 30 31 32 33 34 35 36 37 38 39 40 41 42 43 44 45 46 47 48 49 50
000
ASUS43 KOAX 250602
RWRNE

WEATHER ROUNDUP FOR NEBRASKA
NATIONAL WEATHER SERVICE OMAHA NE
100 AM CDT SAT APR 25 2015

NOTES: SATELLITE DATA IS BEING USED TO AUGMENT CLOUD COVER ABOVE
       12000 FEET.
       "FAIR" INDICATES FEW OR NO CLOUDS BELOW 12,000 FEET WITH NO
       SIGNIFICANT WEATHER AND/OR OBSTRUCTIONS TO VISIBILITY.

  * THESE STATIONS DO NOT REPORT WEATHER SUCH AS RAIN...SNOW OR FOG.

NEZ001>004-019>022-054>056-250700-
NEBRASKA PANHANDLE

CITY           SKY/WX    TMP DP  RH WIND       PRES   REMARKS
SCOTTSBLUFF    PTCLDY    48  42  80 NW5       29.64R
6HR MIN TEMP:  47; 6HR MAX TEMP:  61; 6HR PCP: TRACE;

ALLIANCE       PTCLDY    45  41  86 NW6       29.61R
6HR MIN TEMP:  44; 6HR MAX TEMP:  57;

CHADRON        MOCLDY    43  41  93 CALM      29.63R
6HR MIN TEMP:  41; 6HR MAX TEMP:  63;

KIMBALL        MOCLDY    47  38  72 W9        29.63S
SIDNEY         MOCLDY    50  39  66 NW10      29.64R
6HR MIN TEMP:  48; 6HR MAX TEMP:  59;

$$

NEZ057>060-069>072-079>082-250700-
SOUTHWEST NEBRASKA

CITY           SKY/WX    TMP DP  RH WIND       PRES   REMARKS
IMPERIAL       CLOUDY    52  42  69 W3        29.59R
6HR MIN TEMP:  50; 6HR MAX TEMP:  68; 6HR PCP: TRACE;

MCCOOK         LGT RAIN  51  48  89 NE16      29.54R
6HR MIN TEMP:  51; 6HR MAX TEMP:  67; 6HR PCP:  0.24;

$$

NEZ005>010-023>029-035>040-094-250700-
NORTH CENTRAL NEBRASKA

CITY           SKY/WX    TMP DP  RH WIND       PRES   REMARKS
VALENTINE      CLOUDY    58  43  57 NW17      29.52S
6HR MIN TEMP:  56; 6HR MAX TEMP:  73; 6HR PCP: TRACE;

AINSWORTH      CLOUDY    55  47  74 N10       29.55S
BROKEN BOW     CLOUDY    56  46  69 W10       29.51R
6HR MIN TEMP:  53; 6HR MAX TEMP:  69; 6HR PCP: TRACE;

ORD            CLOUDY    57  54  89 SE5       29.49R
6HR MIN TEMP:  56; 6HR MAX TEMP:  67;

$$

NEZ041-046>049-061>064-073>077-083>087-250700-
SOUTH CENTRAL NEBRASKA

CITY           SKY/WX    TMP DP  RH WIND       PRES   REMARKS
GRAND ISLAND   CLOUDY    56  54  93 N6        29.49F FOG
6HR MIN TEMP:  56; 6HR MAX TEMP:  61; 6HR PCP: TRACE;

AURORA         CLOUDY    55  55 100 NE10      29.49S
HASTINGS       HVY RAIN  55  55 100 CALM      29.48F VSB 1
6HR MIN TEMP:  55; 6HR MAX TEMP:  59; 6HR PCP:  0.38;

KEARNEY *      MOCLDY    55  54  94 SE6       29.48F
YORK           LGT RAIN  55  55 100 NE10      29.48F
$$

NEZ011>018-030>034-042>045-250700-
NORTHEAST NEBRASKA

CITY           SKY/WX    TMP DP  RH WIND       PRES   REMARKS
NORFOLK        CLOUDY    58  52  80 E7        29.53S
6HR MIN TEMP:  58; 6HR MAX TEMP:  67;

BLAIR          RAIN      55  52  90 NE12      29.52F
COLUMBUS *     CLOUDY    55  50  82 E10       29.53F
TEKAMAH        CLOUDY    57  53  86 E13       29.54F FOG
6HR MIN TEMP:  57; 6HR MAX TEMP:  67;

$$

NEZ050>053-065>068-078-088>093-250700-
SOUTHEAST NEBRASKA

CITY           SKY/WX    TMP DP  RH WIND       PRES   REMARKS
LINCOLN        LGT RAIN  56  53  90 NE12      29.48F
6HR MIN TEMP:  56; 6HR MAX TEMP:  59; 6HR PCP:  0.03;

OMAHA EPPLEY   LGT RAIN  57  54  89 E10       29.52F FOG
6HR MIN TEMP:  57; 6HR MAX TEMP:  63; 6HR PCP: TRACE;

FALLS CITY     LGT RAIN  58  57  97 E5        29.48R
6HR MIN TEMP:  57; 6HR MAX TEMP:  62; 6HR PCP:  0.29;

PLATTSMOUTH    CLOUDY    55  52  90 NE10      29.50F THUNDER
$$

NEZ044-045-051>053-067-250700-
OMAHA AREA

CITY           SKY/WX    TMP DP  RH WIND       PRES   REMARKS
OMAHA EPPLEY   LGT RAIN  57  54  89 E10       29.52F FOG
6HR MIN TEMP:  57; 6HR MAX TEMP:  63; 6HR PCP: TRACE;

BLAIR          RAIN      55  52  90 NE12      29.52F
OFFUTT AFB     CLOUDY    57  53  87 NE10G17   29.50F
PLATTSMOUTH    CLOUDY    55  52  90 NE10      29.50F THUNDER
$$



USA.gov is the U.S. government's official web portal to all federal, state and local government web resources and services.